KUIPER-00459

导读

KUIPER-00459(NORAD编号68872)是亚马逊柯伊伯计划(Kuiper)中的低轨互联网卫星,该项目旨在构建全球卫星互联网星座,向偏远地区和移动场景提供宽带服务。项目要求FCC要求2026年7月前部署一半即1618颗卫星,KUIPER-00459属于该阶段部署卫星之一,运行于近地轨道,通过与其他卫星组网提供低延迟高速互联网接入,服务航空、移动回传等垂直领域,助力亚马逊实现全球覆盖目标。

基本信息
目录编号:
68872
目录名称:
KUIPER-00459
国际标识:
2026-095J
轨道中心:
EARTH
卫星名称:
KUIPER-00459
卫星全名:
KUIPER-00459
卫星状态:
在轨 (已飞行137 天)
发射日期:
2026-04-28 UTC
国别 :
美国 (US)
星等 :
--
该卫星已列入 空间交会检测服务 Space Conjunction Data Service (SCDS) ,当前飞行风险评估等级: 无高风险
轨道信息
数据来源 国际轨道数据 AOE轨道数据
星历时间 2026-09-11T22:11:37+0800
16小时前
查看轨道信息
2026-09-10T22:00:00+0800
1天前
查看轨道信息
半长轴 7007.675km 7007.707km
偏心率 0.0000727 0.0000715
轨道倾角 51.901° 51.901°
近地点辐角 81.742° 98.605°
升交点赤经 208.646° 213.104°
平近点角 278.362° 287.534°
近地点 629.028km 629.068km
远地点 630.048km 630.072km
周期 97.302分钟 97.302分钟
每日圈数 14.799324 14.799222
详细信息
使用方式:
暂无
2D轨道图
3D轨道图
轨道高度分析图
轨道倾角分析图
轨道综合分析图
查看轨道综合分析图
交会数据列表
事件ID 空间交会对象 最接近时刻(TCA) 交会距离 交会风险概率(CRP) 交会风险指数(CRI) 操作
CDM_260906-021903-214606-887222
2026-09-06T
02:19:37+0000
2.913 km
极远距离
1.357034E-6 低风险 0.38
与全量物体交会距离演化趋势
与全量物体交会风险概率演化趋势